IR2UDS Weather Reports


time (UTC)temp
C
wind
direction
speed
KPH
gust
KPH
rain 1hr
cm
rain 24hr
cm
rain mn
cm
humidity
%
barometer
mb
20260506225319 5 188 24.1 46.7 0.00 1.22 0.00 85 1010.6
20260506224314 5 215 33.8 43.5 0.03 1.22 0.00 84 1010.3
20260506221322 5 201 32.2 49.9 0.03 1.22 0.00 84 1010.3
20260506220319 5 192 35.4 53.1 0.03 1.22 0.00 83 1010.3
20260506215332 5 188 37.0 49.9 0.03 1.22 1.22 82 1010.4
20260506214328 5 185 37.0 56.3 0.00 1.19 1.19 80 1010.4
20260506205323 5 198 40.2 56.3 0.03 1.19 1.19 76 1010.2
20260506202318 5 170 29.0 53.1 0.03 1.19 1.19 79 1010.3
20260506201327 5 173 29.0 40.2 0.03 1.17 1.17 80 1010.4
20260506200328 5 178 11.3 30.6 0.03 1.19 1.17 81 1010.7
20260506195328 5 151 12.9 22.5 0.03 1.19 1.17 81 1010.5
20260506193321 5 93 8.0 16.1 0.03 1.19 1.17 81 1010.4
20260506191314 5 157 17.7 38.6 0.03 1.17 1.14 82 1009.8
20260506190327 5 200 33.8 45.1 0.03 1.17 1.14 82 1009.2
20260506184322 5 205 24.1 37.0 0.03 1.17 1.14 84 1009.3
20260506183315 5 147 22.5 35.4 0.03 1.17 1.14 83 1009.4
20260506181326 5 209 32.2 45.1 0.03 1.14 1.12 81 1008.6
20260506180323 5 196 33.8 56.3 0.03 1.14 1.12 80 1008.3
20260506175318 5 195 46.7 61.2 0.03 1.14 1.12 80 1007.9
20260506174313 6 214 41.8 56.3 0.03 1.14 1.12 79 1007.9
20260506173327 6 212 37.0 57.9 0.05 1.14 1.12 80 1007.8
20260506172320 6 196 38.6 64.4 0.03 1.12 1.09 79 1007.7
20260506171319 6 197 41.8 57.9 0.03 1.12 1.09 79 1007.4
20260506164324 6 207 30.6 53.1 0.05 1.12 1.09 80 1007.6
20260506163318 7 213 35.4 57.9 0.03 1.09 1.07 78 1007.5
20260506162317 7 189 37.0 54.7 0.03 1.09 1.07 79 1007.5
20260506161331 7 199 30.6 49.9 0.05 1.09 1.07 78 1007.6
20260506160325 7 169 32.2 53.1 0.05 1.09 1.07 75 1007.6
20260506155317 7 235 38.6 51.5 0.03 1.07 1.04 75 1007.4
20260506154331 8 198 29.0 46.7 0.05 1.07 1.04 73 1007.6
20260506153328 8 198 29.0 46.7 0.05 1.07 1.04 72 1007.8
20260506152320 8 220 29.0 46.7 0.05 1.07 1.04 73 1007.9
20260506151313 8 196 38.6 56.3 0.05 1.04 1.02 65 1007.5
20260506141315 8 224 20.9 35.4 0.05 1.02 0.97 74 1008.3
20260506140328 8 211 29.0 45.1 0.08 1.02 0.97 75 1008.0
20260506135322 8 196 25.7 40.2 0.05 0.99 0.94 73 1008.2
20260506134321 8 178 24.1 40.2 0.08 0.99 0.94 73 1008.4
20260506133315 8 227 20.9 45.1 0.10 0.99 0.94 74 1008.5
20260506131326 8 226 27.4 49.9 0.10 0.97 0.91 77 1008.5
20260506130319 9 211 19.3 45.1 0.08 0.94 0.89 78 1008.7
20260506121318 8 211 32.2 46.7 0.08 0.86 0.81 76 1008.1
20260506120312 8 212 29.0 53.1 0.10 0.89 0.81 80 1008.4
20260506114324 8 183 37.0 57.9 0.10 0.86 0.79 82 1008.2
20260506113317 8 182 25.7 43.5 0.08 0.84 0.76 83 1008.2
20260506112331 8 195 30.6 43.5 0.10 0.84 0.76 84 1008.2
20260506110319 8 186 22.5 40.2 0.05 0.89 0.71 85 1008.5
20260506104332 7 200 22.5 54.7 0.05 0.86 0.69 86 1008.6
20260506103326 8 223 22.5 43.5 0.08 0.86 0.69 88 1008.2
20260506102318 7 196 32.2 54.7 0.05 0.84 0.66 89 1008.2
20260506094326 7 214 20.9 32.2 0.08 0.81 0.64 90 1008.4
20260506091332 7 194 16.1 29.0 0.08 0.79 0.61 90 1008.5
20260506073321 6 190 19.3 40.2 0.08 1.09 0.48 90 1008.0
20260506072315 6 11 4.8 22.5 0.08 1.09 0.48 90 1007.9
20260506071328 6 37 1.6 6.4 0.08 1.07 0.46 90 1008.0
20260506062327 6 96 1.6 11.3 0.08 1.40 0.41 90 1008.4
20260506061321 6 57 4.8 9.7 0.08 1.37 0.38 90 1008.5
20260506060319 6 71 1.6 4.8 0.08 1.60 0.38 90 1008.6
20260506051315 6 16 8.0 14.5 0.08 1.52 0.30 89 1009.4
20260506050312 6 92 4.8 16.1 0.08 1.83 0.30 89 1009.3
20260506041313 5 67 4.8 8.0 0.10 1.75 0.23 89 1009.6
20260506034320 4 62 3.2 8.0 0.08 1.85 0.18 89 1009.5
20260506033314 4 157 0.0 8.0 0.10 1.85 0.18 88 1009.9
20260506030323 5 66 6.4 11.3 0.10 1.88 0.13 88 1010.3
20260506025313 5 81 1.6 6.4 0.08 1.85 0.10 89 1010.6
20260506023321 5 34 4.8 8.0 0.08 1.83 0.08 89 1010.5
20260506022317 5 16 6.4 6.4 0.08 1.83 0.08 89 1010.7
20260506012314 6 144 0.0 3.2 0.00 1.75 0.00 89 1011.0
20260506010327 6 174 8.0 11.3 0.00 1.75 0.00 89 1011.3
20260506004316 6 182 4.8 12.9 0.00 1.75 0.00 89 1011.2
20260506003327 6 188 11.3 17.7 0.00 1.75 0.00 89 1011.3
20260506002322 6 177 16.1 24.1 0.00 1.75 0.00 89 1011.3
20260506001321 6 210 19.3 25.7 0.00 1.75 0.00 90 1011.0
20260505235328 6 182 12.9 20.9 0.00 1.75 0.00 89 1011.7
20260505234322 5 207 12.9 17.7 0.00 1.75 0.00 89 1011.8
20260505232313 5 200 16.1 20.9 0.00 1.75 0.00 90 1011.8
20260505231327 5 196 12.9 19.3 0.00 1.75 0.00 90 1012.0